DW5444 Weather Reports


time (UTC)temp
C
wind
direction
speed
KPH
gust
KPH
rain 1hr
cm
rain 24hr
cm
rain mn
cm
humidity
%
barometer
mb
20260507043050 15 261 9.7 20.9 0.00 0.00 0.00 47 1014.6
20260507041548 16 256 12.9 22.5 0.00 0.00 0.00 45 1014.4
20260507040046 16 271 12.9 33.8 0.00 0.00 0.00 45 1014.1
20260507034545 16 267 25.7 37.0 0.00 0.00 0.00 42 1013.8
20260507033046 15 220 6.4 9.7 0.00 0.00 0.00 49 1014.0
20260507031544 16 201 6.4 19.3 0.00 0.00 0.00 49 1014.1
20260507030044 16 239 14.5 22.5 0.00 0.00 0.00 47 1013.9
20260507024542 16 267 12.9 22.5 0.00 0.00 0.00 47 1013.7
20260507023041 17 250 12.9 29.0 0.00 0.00 0.00 45 1013.6
20260507021540 17 256 27.4 40.2 0.00 0.00 0.00 42 1013.4
20260507020043 17 260 22.5 33.8 0.00 0.00 0.00 42 1013.2
20260507014547 18 241 22.5 48.3 0.00 0.00 0.00 42 1013.1
20260507013049 18 240 24.1 37.0 0.00 0.00 0.00 41 1013.0
20260507011538 18 254 22.5 37.0 0.00 0.00 0.00 40 1013.2
20260507010050 18 265 27.4 38.6 0.00 0.00 0.00 41 1013.0
20260507004536 19 256 17.7 37.0 0.00 0.00 0.00 41 1013.3
20260507003036 20 253 25.7 38.6 0.00 0.00 0.00 39 1013.0
20260507001535 20 258 27.4 37.0 0.00 0.00 0.00 39 1012.6
20260507000034 20 242 20.9 37.0 0.00 0.00 0.00 38 1012.6
20260506234537 21 253 25.7 38.6 0.00 0.00 0.00 40 1012.5
20260506233052 20 255 24.1 37.0 0.00 0.00 0.00 40 1012.5
20260506231533 21 270 22.5 35.4 0.00 0.00 0.00 38 1012.5
20260506230029 21 271 24.1 33.8 0.00 0.00 0.00 38 1012.4
20260506224530 20 248 20.9 33.8 0.00 0.00 0.00 43 1012.6
20260506223029 21 254 20.9 38.6 0.00 0.00 0.00 43 1012.7
20260506221528 21 265 25.7 35.4 0.00 0.00 0.00 39 1012.6
20260506220029 22 258 25.7 35.4 0.00 0.00 0.00 41 1012.6
20260506214526 22 270 25.7 37.0 0.00 0.00 0.00 39 1012.9
20260506213026 22 264 24.1 41.8 0.00 0.00 0.00 41 1012.8
20260506211527 22 251 27.4 38.6 0.00 0.00 0.00 45 1012.7
20260506210031 22 268 25.7 40.2 0.00 0.00 0.00 49 1012.7
20260506204521 22 261 25.7 32.2 0.00 0.00 0.00 49 1012.7
20260506203020 22 253 19.3 37.0 0.00 0.00 0.00 52 1012.7
20260506201519 22 264 20.9 37.0 0.00 0.00 0.00 49 1012.7
20260506200033 22 259 17.7 32.2 0.00 0.00 0.00 47 1012.7
20260506194517 22 264 14.5 25.7 0.00 0.00 0.00 46 1012.6
20260506193013 22 249 11.3 20.9 0.00 0.00 0.00 50 1012.8
20260506191510 21 241 9.7 25.7 0.00 0.00 0.00 50 1013.2
20260506190007 21 234 9.7 24.1 0.00 0.00 0.00 49 1013.5
20260506184506 20 266 16.1 29.0 0.00 0.00 0.00 50 1013.7
20260506183005 20 270 20.9 29.0 0.00 0.00 0.00 51 1013.7
20260506181557 18 241 14.5 24.1 0.00 0.00 0.00 58 1013.8
20260506180057 18 284 16.1 24.1 0.00 0.00 0.00 60 1014.0
20260506174555 18 281 16.1 29.0 0.00 0.00 0.00 62 1013.9
20260506173108 18 270 17.7 25.7 0.00 0.00 0.00 57 1013.7
20260506171557 18 269 12.9 22.5 0.00 0.00 0.00 62 1013.9
20260506170100 18 254 14.5 22.5 0.00 0.00 0.00 60 1013.8
20260506164609 18 246 14.5 20.9 0.00 0.00 0.00 59 1013.7
20260506163047 17 263 8.0 17.7 0.00 0.00 0.00 63 1013.6
20260506161548 17 261 11.3 20.9 0.00 0.00 0.00 61 1013.8
20260506160050 17 267 12.9 19.3 0.00 0.00 0.00 59 1013.8
20260506154550 16 223 8.0 17.7 0.00 0.00 0.00 64 1013.8
20260506153039 16 241 8.0 16.1 0.00 0.00 0.00 67 1014.0
20260506151539 16 236 11.3 16.1 0.00 0.00 0.00 61 1014.0
20260506150037 16 249 9.7 17.7 0.00 0.00 0.00 61 1014.0
20260506144533 16 244 8.0 17.7 0.00 0.00 0.00 62 1013.9
20260506143035 15 253 6.4 12.9 0.00 0.00 0.00 62 1013.8
20260506141528 15 238 6.4 9.7 0.00 0.00 0.00 61 1013.7
20260506140027 15 244 8.0 12.9 0.00 0.00 0.00 60 1013.6
20260506134523 15 213 4.8 9.7 0.00 0.00 0.00 61 1013.4
20260506133019 14 218 3.2 8.0 0.00 0.00 0.00 63 1013.2
20260506131518 12 157 3.2 6.4 0.00 0.00 0.00 68 1013.1
20260506130017 12 160 3.2 6.4 0.00 0.00 0.00 67 1013.0
20260506124514 12 114 3.2 6.4 0.00 0.00 0.00 66 1012.9
20260506123016 12 180 4.8 12.9 0.00 0.00 0.00 66 1012.8
20260506121515 12 164 3.2 8.0 0.00 0.00 0.00 66 1012.7
20260506120010 12 174 4.8 9.7 0.00 0.00 0.00 65 1012.6
20260506114510 12 204 3.2 8.0 0.00 0.00 0.00 64 1012.5
20260506113009 13 180 4.8 11.3 0.00 0.00 0.00 63 1012.4
20260506111505 13 223 6.4 12.9 0.00 0.00 0.00 62 1012.4
20260506110005 13 198 3.2 8.0 0.00 0.00 0.00 61 1012.3
20260506104504 13 192 4.8 9.7 0.00 0.00 0.00 60 1012.2
20260506103004 13 149 3.2 6.4 0.00 0.00 0.00 61 1012.0
20260506101502 13 142 4.8 8.0 0.00 0.00 0.00 60 1012.0
20260506100100 13 173 3.2 11.3 0.00 0.00 0.00 58 1012.0
20260506094600 13 173 4.8 9.7 0.00 0.00 0.00 58 1012.0
20260506093058 13 135 4.8 8.0 0.00 0.00 0.00 58 1011.8
20260506091558 13 132 4.8 9.7 0.00 0.00 0.00 58 1011.9
20260506090056 13 130 8.0 9.7 0.00 0.00 0.00 58 1011.8
20260506084556 13 109 6.4 9.7 0.00 0.00 0.00 59 1011.8
20260506083055 13 105 6.4 9.7 0.00 0.00 0.00 59 1011.8
20260506081555 13 156 6.4 11.3 0.00 0.00 0.00 61 1011.8
20260506073053 12 137 0.0 4.8 0.00 0.00 0.00 64 1011.7
20260506071550 13 123 0.0 3.2 0.00 0.00 0.00 59 1011.7
20260506061537 13 82 1.6 8.0 0.00 0.00 0.00 59 1011.0
20260506044537 12 58 3.2 4.8 0.00 0.00 0.00 66 1010.7